Location: Dodge City Co - Operative Exchange Grain Elevator Number 8
(38.1218°N, 99.7124°W)
Time: 07:53:38
(UTC+00:00)

Cosmos 2227 Rocket - Pass Details

Date: 03 March 2021
Orbit: 839 x 845 km, 71.0° (Epoch: 13 April)

Event Time Altitude Azimuth Distance (km) Brightness Sun altitude
Rises 12:33:58 0° 175° (S) 3,383 5.4 -7.4°
Reaches altitude 10° 12:36:36 10° 166° (SSE) 2,453 4.8 -6.9°
Maximum altitude 12:41:35 34° 104° (ESE) 1,371 4.3 -5.9°
Drops below altitude 10° 12:46:36 10° 41° (NE) 2,470 5.2 -4.9°
Sets 12:49:15 0° 33° (NNE) 3,409 5.8 -4.4°
